Regional Weather Roundup
Issued by NWS

Home | Current Version | Previous Version | Text Only | Print | Product List | Glossary Off
Versions: 1 2 3 4 5 6 7 8 9 10 11 12 13 14 15 16 17 18 19 20 21 22 23 24 25 26 27 28 29 30 31 32 33 34 35 36 37 38 39 40 41 42 43 44 45 46 47 48 49 50

000
ASUS43 KFSD 171402
RWRSD

WEATHER ROUNDUP FOR SOUTH DAKOTA
NATIONAL WEATHER SERVICE SIOUX FALLS SD
800 AM CST SAT FEB 17 2018

NOTE: "FAIR" INDICATES FEW OR NO CLOUDS BELOW 12,000 FEET WITH NO
SIGNIFICANT WEATHER AND/OR OBSTRUCTIONS TO VISIBILITY.


SDZ001>005-009-010-012>017-171500-
NORTHWEST AND NORTH CENTRAL SOUTH DAKOTA

CITY           SKY/WX    TMP DP  RH WIND       PRES   REMARKS
BUFFALO          N/A     17  13  84 NW18      29.86R WCI   1
FAITH            N/A     24  22  91 NW20G26   29.93R WCI  10
MOBRIDGE       CLOUDY    22  17  81 NW9       29.89R WCI  12
$$

SDZ012>016-024>037-041>051-057-063-072>074-171500-
SOUTHWEST AND SOUTH CENTRAL SOUTH DAKOTA

CITY           SKY/WX    TMP DP  RH WIND       PRES   REMARKS
RAPID CTY ARPT CLEAR     27  21  78 N22       29.94R WCI  13
PIERRE         LGT SNOW  25  24  96 NW16      29.92R VSB 1   WCI  12
CUSTER         CLEAR     20   6  55 NW9       29.84R WCI   9
ELLSWORTH AFB  CLOUDY    28  24  85 NW17      29.93R WCI  15
PHILIP         PTCLDY    26  22  84 NW18      29.93R WCI  13
PINE RIDGE     CLEAR     21  14  74 W9        29.95R WCI  11
SPEARFISH        N/A     27  19  74 W16       29.93R WCI  14
WINNER         FAIR      25  18  74 NW5       29.92R WCI  19
$$

SDZ004>011-016>023-039-040-171500-
NORTHEAST SOUTH DAKOTA

CITY           SKY/WX    TMP DP  RH WIND       PRES   REMARKS
ABERDEEN       CLOUDY    19  16  88 NW7       29.90R WCI  10
WATERTOWN      MOCLDY    14  14 100 SW6       29.84R WCI   5
BROOKINGS      FOG       24  23  96 W9        29.87R VSB 1   WCI  14
SISSETON         N/A     19  15  84 NW8       29.86R WCI   9
$$

SDZ017-020-022-023-036>040-048>070-171500-
SOUTHEAST SOUTH DAKOTA

CITY           SKY/WX    TMP DP  RH WIND       PRES   REMARKS
SIOUX FALLS    CLOUDY    25  24  96 SW3       29.88R
HURON          CLOUDY    19  15  84 NW7       29.90R WCI  10
CHAMBERLAIN    CLOUDY    24  18  80 W5        29.92R WCI  18
MITCHELL       PTCLDY    21  20  96 W7        29.91R WCI  12
YANKTON        FOG       22  21  96 W6        29.91R VSB 1/4 WCI  14
$$

ABBREVIATIONS USED IN REMARKS
   TC - TEMPERATURE IN CELSIUS
  WCI - WIND CHILL INDEX
   HX - HEAT INDEX
  VSB - VISIBILITY





USA.gov is the U.S. government's official web portal to all federal, state and local government web resources and services.